Location: Pedimozza
(42.0500°N, 9.3500°E)
Time: 08:12:43
(UTC+00:00)

MetOp-A - Pass Details

Date: 19 August 2019
Orbit: 819 x 821 km, 98.6° (Epoch: 18 September)

Event Time Altitude Azimuth Distance (km) Brightness Sun altitude
Exits shadow 19:53:54 16° 169° (S) 1,997 5.7 -16.8°
Maximum altitude 19:58:11 82° 257° (WSW) 834 4.2 -17.4°
Drops below altitude 10° 20:03:34 10° 345° (NNW) 2,425 7.3 -18.2°
Sets 20:05:55 0° 346° (NNW) 3,362 8.2 -18.6°
